Home > Weather > Oakland > Past weeks

Flag for USA Weather for the Past 2 Weeks in Oakland, California, USA

Now
58 °F

Partly sunny.


Feels Like: 57 °F
Forecast: 53 / 68 °F
Wind: 7 mph from South

Location: Metro Oakland International Airport

Current Time: Apr 29, 2016 at 10:53:55 AM

Latest Report: Apr 29, 2016 at 9:53 AM


Visibility: 10 mi

Pressure: 30.06 "Hg

Humidity: 70%

Dew Point: 48 °F

Location of OaklandLocation

Historic Weather in Oakland — Graph

°F

Oakland Temperature Yesterday

Maximum temperature yesterday: 67 °F (at 2:53 PM)
Minimum temperature yesterday: 52 °F (at 5:53 AM)
Average temperature yesterday: 58 °F

High & Low Weather Summary for the Past Weeks

 TemperatureHumidityPressure
High80 °F (Apr 17, 3:53 PM)90% (Apr 27, 10:53 AM)30.21 "Hg (Apr 27, 10:53 AM)
Low49 °F (Apr 20, 5:53 AM)22% (Apr 19, 6:53 PM)29.80 "Hg (Apr 22, 5:53 AM)
Average61 °F60%30.01 "Hg
* Reported Apr 14 8:53 AM — Apr 29 8:53 AM, Oakland, Weather by CustomWeather, © 2016

Note: Actual official high and low records may vary slightly from our data, if they occured in-between our weather recording intervals... More about our weather records

Advertising

Oakland Weather History for the Previous 24 Hours

Scroll right to see more
 ConditionsComfort  
Time TempWeatherWind HumidityBarometerVisibility
8:53 AM
Fri, Apr 29
57 °FPartly sunny.8 mph72%30.05 "Hg10 mi
7:53 AM55 °FPartly sunny.3 mph74%30.04 "Hg10 mi
6:53 AM53 °FPartly cloudy.7 mph77%30.01 "Hg10 mi
5:53 AM53 °FPassing clouds.9 mph80%30.00 "Hg10 mi
4:53 AM53 °FOvercast.No wind80%30.01 "Hg10 mi
3:53 AM53 °FOvercast.12 mph80%30.01 "Hg10 mi
2:53 AM53 °FPartly cloudy.17 mph80%29.99 "Hg9 mi
1:53 AM54 °FPassing clouds.3 mph77%29.98 "Hg9 mi
12:53 AM54 °FPassing clouds.12 mph80%29.98 "Hg9 mi
11:53 PM
Thu, Apr 28
56 °FPassing clouds.14 mph77%29.97 "Hg10 mi
10:53 PM53 °FPassing clouds.No wind80%29.97 "Hg9 mi
9:53 PM55 °FPassing clouds.8 mph77%29.98 "Hg10 mi
8:53 PM57 °FPassing clouds.8 mph74%29.95 "Hg10 mi
7:53 PM58 °FPassing clouds.13 mph70%29.93 "Hg9 mi
6:53 PM61 °FPassing clouds.14 mph65%29.92 "Hg10 mi
5:53 PM63 °FPassing clouds.15 mph60%29.92 "Hg10 mi
4:53 PM65 °FPassing clouds.12 mph59%29.91 "Hg10 mi
3:53 PM66 °FPassing clouds.15 mph56%29.93 "Hg10 mi
2:53 PM67 °FPassing clouds.16 mph55%29.93 "Hg10 mi
1:53 PM66 °FPassing clouds.18 mph54%29.92 "Hg10 mi
12:53 PM66 °FPassing clouds.15 mph52%29.92 "Hg10 mi
11:53 AM64 °FPassing clouds.8 mph52%29.93 "Hg10 mi
10:53 AM60 °FPassing clouds.7 mph60%29.93 "Hg10 mi
Weather by CustomWeather, © 2016

See weather overviewHow to use our weather pages